Hourly Weather Barnimie

Today, 20 September, Sunday

Time Temperature Precipitation Wind Pressure Humidity
00:00 +12°C° 0 mm 2 mps 759 mmHg 57%
01:00 +12°C° 0 mm 2 mps 759 mmHg 57%
02:00 +12°C° 0 mm 2 mps 759 mmHg 58%
03:00 +12°C° 0 mm 2 mps 758 mmHg 58%
04:00 +10°C° 0 mm 2 mps 758 mmHg 59%
05:00 +10°C° 0 mm 2 mps 758 mmHg 60%
06:00 +12°C° 0 mm 2 mps 758 mmHg 62%
07:00 +12°C° 0 mm 2 mps 758 mmHg 63%
08:00 +13°C° 0 mm 3 mps 758 mmHg 57%
09:00 +16°C° 0 mm 3 mps 758 mmHg 51%
10:00 +18°C° 0 mm 3 mps 758 mmHg 46%
11:00 +19°C° 0 mm 3 mps 758 mmHg 42%
12:00 +20°C° 0 mm 3 mps 758 mmHg 39%
13:00 +22°C° 0 mm 3 mps 758 mmHg 36%
14:00 +21°C° 0 mm 3 mps 758 mmHg 37%
15:00 +21°C° 0 mm 3 mps 757 mmHg 38%
16:00 +21°C° 0 mm 2 mps 757 mmHg 39%
17:00 +19°C° 0 mm 2 mps 757 mmHg 45%
18:00 +17°C° 0 mm 2 mps 757 mmHg 50%
19:00 +15°C° 0 mm 2 mps 757 mmHg 55%
20:00 +14°C° 0 mm 2 mps 757 mmHg 57%
21:00 +14°C° 0 mm 2 mps 757 mmHg 59%
22:00 +13°C° 0 mm 2 mps 757 mmHg 61%
23:00 +13°C° 0 mm 2 mps 757 mmHg 62%

Tomorrow, 21 September, Monday

Time Temperature Precipitation Wind Pressure Humidity
00:00 +12°C° 0 mm 2 mps 757 mmHg 63%
01:00 +12°C° 0 mm 2 mps 757 mmHg 64%
02:00 +10°C° 0 mm 2 mps 756 mmHg 66%
03:00 +10°C° 0 mm 2 mps 756 mmHg 67%
04:00 +10°C° 0 mm 2 mps 756 mmHg 68%
05:00 +10°C° 0 mm 2 mps 756 mmHg 68%
06:00 +12°C° 0 mm 2 mps 756 mmHg 68%
07:00 +12°C° 0 mm 2 mps 757 mmHg 68%
08:00 +14°C° 0 mm 2 mps 756 mmHg 62%
09:00 +17°C° 0 mm 2 mps 756 mmHg 57%
10:00 +19°C° 0 mm 2 mps 756 mmHg 51%
11:00 +20°C° 0 mm 2 mps 756 mmHg 47%
12:00 +23°C° 0 mm 2 mps 756 mmHg 44%
13:00 +24°C° 0 mm 1 mps 756 mmHg 41%
14:00 +24°C° 0 mm 1 mps 755 mmHg 41%
15:00 +24°C° 0 mm 1 mps 755 mmHg 42%
16:00 +24°C° 0 mm 1 mps 755 mmHg 42%
17:00 +22°C° 0 mm 1 mps 754 mmHg 48%
18:00 +20°C° 0 mm 1 mps 754 mmHg 54%
19:00 +18°C° 0 mm 1 mps 754 mmHg 61%
20:00 +16°C° 0 mm 1 mps 754 mmHg 63%
21:00 +16°C° 0 mm 1 mps 754 mmHg 65%
22:00 +15°C° 0 mm 1 mps 754 mmHg 67%
23:00 +15°C° 0 mm 1 mps 754 mmHg 69%

Day after tomorrow, 22 September, Tuesday

Time Temperature Precipitation Wind Pressure Humidity
00:00 +15°C° 0 mm 2 mps 754 mmHg 70%
01:00 +15°C° 0 mm 2 mps 753 mmHg 72%
02:00 +14°C° 0 mm 2 mps 753 mmHg 72%
03:00 +14°C° 0 mm 2 mps 753 mmHg 73%
04:00 +14°C° 0 mm 2 mps 752 mmHg 74%
05:00 +14°C° 0 mm 2 mps 752 mmHg 73%
06:00 +15°C° 0 mm 2 mps 752 mmHg 72%
07:00 +15°C° 0 mm 2 mps 752 mmHg 72%
08:00 +17°C° 0 mm 2 mps 752 mmHg 64%
09:00 +20°C° 0 mm 3 mps 752 mmHg 56%
10:00 +22°C° 0 mm 3 mps 752 mmHg 49%
11:00 +23°C° 0 mm 4 mps 751 mmHg 45%
12:00 +25°C° 0 mm 4 mps 751 mmHg 41%
13:00 +27°C° 0 mm 5 mps 750 mmHg 38%
14:00 +26°C° 0 mm 4 mps 750 mmHg 40%
15:00 +26°C° 0 mm 4 mps 749 mmHg 42%
16:00 +26°C° 0 mm 3 mps 749 mmHg 44%
17:00 +24°C° 0 mm 3 mps 748 mmHg 50%
18:00 +21°C° 0 mm 2 mps 748 mmHg 56%
19:00 +19°C° 0 mm 2 mps 748 mmHg 62%
20:00 +18°C° 0 mm 2 mps 748 mmHg 64%
21:00 +18°C° 0 mm 2 mps 748 mmHg 66%
22:00 +17°C° 0 mm 2 mps 747 mmHg 68%
23:00 +17°C° 0 mm 2 mps 747 mmHg 71%

23 September, Wednesday

Time Temperature Precipitation Wind Pressure Humidity
00:00 +17°C° 0 mm 2 mps 747 mmHg 73%
01:00 +16°C° 0 mm 2 mps 747 mmHg 75%
02:00 +16°C° 0 mm 2 mps 747 mmHg 77%
03:00 +16°C° 0 mm 2 mps 747 mmHg 79%
04:00 +16°C° 0 mm 2 mps 746 mmHg 81%
05:00 +16°C° 0 mm 2 mps 746 mmHg 80%
06:00 +16°C° 0 mm 2 mps 746 mmHg 79%
07:00 +17°C° 0 mm 2 mps 746 mmHg 78%
08:00 +18°C° 0 mm 2 mps 746 mmHg 72%
09:00 +20°C° 0 mm 2 mps 746 mmHg 66%
10:00 +23°C° 0 mm 2 mps 746 mmHg 60%
11:00 +24°C° 0 mm 2 mps 746 mmHg 57%
12:00 +25°C° 0 mm 3 mps 746 mmHg 53%
13:00 +26°C° 0 mm 3 mps 746 mmHg 50%
14:00 +26°C° 0 mm 3 mps 746 mmHg 49%
15:00 +26°C° 0 mm 2 mps 746 mmHg 49%
16:00 +25°C° 0 mm 2 mps 746 mmHg 48%
17:00 +23°C° 0 mm 2 mps 746 mmHg 52%
18:00 +20°C° 0 mm 2 mps 746 mmHg 57%
19:00 +20°C° 0 mm 1 mps 746 mmHg 61%
20:00 +19°C° 0 mm 1 mps 746 mmHg 62%
21:00 +19°C° 0 mm 1 mps 746 mmHg 63%
22:00 +17°C° 0 mm 2 mps 746 mmHg 64%
23:00 +17°C° 0 mm 2 mps 746 mmHg 64%

24 September, Thursday

Time Temperature Precipitation Wind Pressure Humidity
00:00 +17°C° 0 mm 2 mps 745 mmHg 64%
01:00 +16°C° 0 mm 2 mps 745 mmHg 64%
02:00 +16°C° 0 mm 2 mps 745 mmHg 68%
03:00 +16°C° 0 mm 2 mps 745 mmHg 72%
04:00 +16°C° 0 mm 3 mps 745 mmHg 75%
05:00 +16°C° 0 mm 3 mps 745 mmHg 78%
06:00 +16°C° 0 mm 3 mps 745 mmHg 80%
07:00 +17°C° 0 mm 4 mps 745 mmHg 82%
08:00 +18°C° 0 mm 4 mps 746 mmHg 76%
09:00 +20°C° 0 mm 5 mps 746 mmHg 69%
10:00 +21°C° 0 mm 5 mps 746 mmHg 63%
11:00 +21°C° 0.2 mm 6 mps 747 mmHg 63%
12:00 +21°C° 0.2 mm 6 mps 747 mmHg 63%
13:00 +21°C° 0.2 mm 6 mps 747 mmHg 63%
14:00 +21°C° 0.1 mm 5 mps 747 mmHg 61%
15:00 +21°C° 0.1 mm 4 mps 748 mmHg 58%
16:00 +20°C° 0.1 mm 4 mps 748 mmHg 56%
17:00 +19°C° 0 mm 3 mps 748 mmHg 60%
18:00 +17°C° 0 mm 2 mps 748 mmHg 64%
19:00 +16°C° 0 mm 1 mps 748 mmHg 67%
20:00 +15°C° 0 mm 1 mps 748 mmHg 68%
21:00 +15°C° 0 mm 1 mps 748 mmHg 68%
22:00 +14°C° 0 mm 1 mps 748 mmHg 69%
23:00 +14°C° 0 mm 1 mps 748 mmHg 71%

25 September, Friday

Time Temperature Precipitation Wind Pressure Humidity
00:00 +14°C° 0 mm 2 mps 747 mmHg 74%
01:00 +14°C° 0 mm 2 mps 747 mmHg 76%
02:00 +14°C° 0 mm 2 mps 746 mmHg 79%
03:00 +14°C° 0 mm 2 mps 746 mmHg 82%
04:00 +14°C° 0 mm 2 mps 745 mmHg 85%
05:00 +14°C° 2.1 mm 2 mps 745 mmHg 88%
06:00 +14°C° 2.1 mm 2 mps 744 mmHg 92%
07:00 +13°C° 2.1 mm 2 mps 744 mmHg 96%
08:00 +12°C° 5.8 mm 3 mps 743 mmHg 96%
09:00 +12°C° 5.8 mm 3 mps 742 mmHg 96%
10:00 +12°C° 5.8 mm 3 mps 742 mmHg 96%
11:00 +12°C° 2.3 mm 3 mps 741 mmHg 95%
12:00 +12°C° 2.3 mm 3 mps 741 mmHg 94%
13:00 +12°C° 2.3 mm 3 mps 741 mmHg 93%
14:00 +13°C° 0.2 mm 3 mps 741 mmHg 91%
15:00 +13°C° 0.2 mm 3 mps 741 mmHg 89%
16:00 +13°C° 0.2 mm 3 mps 741 mmHg 87%
17:00 +13°C° 0.2 mm 3 mps 741 mmHg 87%
18:00 +12°C° 0.2 mm 3 mps 741 mmHg 87%
19:00 +12°C° 0.2 mm 3 mps 741 mmHg 87%
20:00 +11°C° 0 mm 3 mps 741 mmHg 87%
21:00 +10°C° 0 mm 2 mps 741 mmHg 88%
22:00 +10°C° 0 mm 2 mps 742 mmHg 89%
23:00 +9°C° 0 mm 2 mps 741 mmHg 88%
Show more